Time,TemperatureF,DewpointF,PressureIn,WindDirection,WindDirectionDegrees,WindSpeedMPH,WindSpeedGustMPH,Humidity,HourlyPrecipIn,Conditions,Clouds,dailyrainin,SolarRadiationWatts/m^2,SoftwareType,DateUTC
2013-06-16 00:00:00,0.0,0.0,29.90,North,0,0.0,0.0,0,0.00,,,0.00,0.00,VWS V14.00,2013-06-16 05:00:00,
2013-06-16 00:15:00,0.0,0.0,29.91,North,0,0.0,0.0,0,0.00,,,0.00,0.00,VWS V14.00,2013-06-16 05:15:00,
2013-06-16 00:30:00,0.0,0.0,29.91,North,0,0.0,0.0,0,0.00,,,0.00,0.00,VWS V14.00,2013-06-16 05:30:00,
2013-06-16 00:45:00,0.0,0.0,29.90,North,0,0.0,0.0,0,0.00,,,0.00,0.00,VWS V14.00,2013-06-16 05:45:00,
2013-06-16 01:00:00,0.0,0.0,29.90,North,0,0.0,0.0,0,0.00,,,0.00,0.00,VWS V14.00,2013-06-16 06:00:00,
2013-06-16 01:15:00,0.0,0.0,29.89,North,0,0.0,0.0,0,0.00,,,0.00,0.00,VWS V14.00,2013-06-16 06:15:00,
2013-06-16 01:30:00,0.0,0.0,29.89,North,0,0.0,0.0,0,0.00,,,0.00,0.00,VWS V14.00,2013-06-16 06:30:00,
2013-06-16 01:45:00,0.0,0.0,29.89,North,0,0.0,0.0,0,0.00,,,0.00,0.00,VWS V14.00,2013-06-16 06:45:00,
2013-06-16 02:00:00,0.0,0.0,29.89,North,0,0.0,0.0,0,0.00,,,0.00,0.00,VWS V14.00,2013-06-16 07:00:00,
2013-06-16 02:15:00,0.0,0.0,29.89,North,0,0.0,0.0,0,0.00,,,0.00,0.00,VWS V14.00,2013-06-16 07:15:00,
2013-06-16 02:30:00,0.0,0.0,29.88,North,0,0.0,0.0,0,0.00,,,0.00,0.00,VWS V14.00,2013-06-16 07:30:00,
2013-06-16 02:45:00,0.0,0.0,29.88,North,0,0.0,0.0,0,0.00,,,0.00,0.00,VWS V14.00,2013-06-16 07:45:00,
2013-06-16 03:00:00,0.0,0.0,29.88,North,0,0.0,0.0,0,0.00,,,0.00,0.00,VWS V14.00,2013-06-16 08:00:00,
2013-06-16 03:15:00,0.0,0.0,29.87,North,0,0.0,0.0,0,0.00,,,0.00,0.00,VWS V14.00,2013-06-16 08:15:00,
2013-06-16 03:30:00,0.0,0.0,29.88,North,0,0.0,0.0,0,0.00,,,0.00,0.00,VWS V14.00,2013-06-16 08:30:00,
2013-06-16 03:45:00,0.0,0.0,29.87,North,0,0.0,0.0,0,0.00,,,0.00,0.00,VWS V14.00,2013-06-16 08:45:00,
2013-06-16 04:00:00,0.0,0.0,29.88,North,0,0.0,0.0,0,0.00,,,0.00,0.00,VWS V14.00,2013-06-16 09:00:00,
2013-06-16 04:15:00,0.0,0.0,29.88,North,0,0.0,0.0,0,0.00,,,0.00,0.00,VWS V14.00,2013-06-16 09:15:00,
2013-06-16 04:30:00,0.0,0.0,29.88,North,0,0.0,0.0,0,0.00,,,0.00,0.00,VWS V14.00,2013-06-16 09:30:00,
2013-06-16 04:45:00,0.0,0.0,29.88,North,0,0.0,0.0,0,0.00,,,0.00,0.00,VWS V14.00,2013-06-16 09:45:00,
2013-06-16 05:00:00,0.0,0.0,29.89,North,0,0.0,0.0,0,0.00,,,0.00,0.00,VWS V14.00,2013-06-16 10:00:00,
2013-06-16 05:15:00,0.0,0.0,29.89,North,0,0.0,0.0,0,0.00,,,0.00,0.00,VWS V14.00,2013-06-16 10:15:00,
2013-06-16 05:30:00,0.0,0.0,29.90,North,0,0.0,0.0,0,0.00,,,0.00,0.00,VWS V14.00,2013-06-16 10:30:00,
2013-06-16 05:45:00,0.0,0.0,29.91,North,0,0.0,0.0,0,0.00,,,0.00,0.00,VWS V14.00,2013-06-16 10:45:00,
2013-06-16 06:00:00,0.0,0.0,29.91,North,0,0.0,0.0,0,0.00,,,0.00,0.00,VWS V14.00,2013-06-16 11:00:00,
2013-06-16 06:15:00,0.0,0.0,29.92,North,0,0.0,0.0,0,0.00,,,0.00,0.00,VWS V14.00,2013-06-16 11:15:00,
2013-06-16 06:30:00,0.0,0.0,29.92,North,0,0.0,0.0,0,0.00,,,0.00,0.00,VWS V14.00,2013-06-16 11:30:00,
2013-06-16 06:45:00,0.0,0.0,29.92,North,0,0.0,0.0,0,0.00,,,0.00,0.00,VWS V14.00,2013-06-16 11:45:00,
2013-06-16 08:15:00,85.2,77.6,29.95,ESE,121,1.0,6.0,78,0.00,,,0.00,471.00,VWS V14.00,2013-06-16 13:15:00,
2013-06-16 08:30:00,85.7,77.7,29.95,South,170,2.0,7.0,77,0.00,,,0.00,589.00,VWS V14.00,2013-06-16 13:30:00,
2013-06-16 08:45:00,86.4,77.9,29.95,South,180,2.0,9.0,76,0.00,,,0.00,618.00,VWS V14.00,2013-06-16 13:45:00,
2013-06-16 09:00:00,86.9,77.2,29.95,South,180,2.0,7.0,73,0.00,,,0.00,607.00,VWS V14.00,2013-06-16 14:00:00,
2013-06-16 09:15:00,87.2,77.5,29.95,South,180,2.0,7.0,73,0.00,,,0.00,625.00,VWS V14.00,2013-06-16 14:15:00,
2013-06-16 09:30:00,87.5,77.4,29.96,South,180,3.0,12.0,72,0.00,,,0.00,674.00,VWS V14.00,2013-06-16 14:30:00,
2013-06-16 09:45:00,87.6,77.0,29.95,South,180,3.0,11.0,71,0.00,,,0.00,723.00,VWS V14.00,2013-06-16 14:45:00,
2013-06-16 10:00:00,88.5,77.9,29.95,South,180,3.0,11.0,71,0.00,,,0.00,757.00,VWS V14.00,2013-06-16 15:00:00,
2013-06-16 10:15:00,88.2,77.2,29.95,South,180,3.0,11.0,70,0.00,,,0.00,814.00,VWS V14.00,2013-06-16 15:15:00,
2013-06-16 10:30:00,88.6,78.0,29.95,South,180,4.0,13.0,71,0.00,,,0.00,845.00,VWS V14.00,2013-06-16 15:30:00,
2013-06-16 10:45:00,89.2,79.4,29.95,South,180,3.0,14.0,73,0.00,,,0.00,862.00,VWS V14.00,2013-06-16 15:45:00,
2013-06-16 11:00:00,89.3,78.7,29.96,South,180,4.0,10.0,71,0.00,,,0.00,931.00,VWS V14.00,2013-06-16 16:00:00,
2013-06-16 11:15:00,89.3,77.8,29.96,South,180,4.0,11.0,69,0.00,,,0.00,942.00,VWS V14.00,2013-06-16 16:15:00,
2013-06-16 12:15:00,89.4,77.4,29.95,ESE,123,0.0,13.0,68,0.00,,,0.00,1013.00,VWS V14.00,2013-06-16 17:15:00,
2013-06-16 12:30:00,90.0,78.9,29.95,ESE,122,4.0,11.0,70,0.00,,,0.00,967.00,VWS V14.00,2013-06-16 17:30:00,
2013-06-16 12:45:00,90.8,78.8,29.95,South,171,2.0,9.0,68,0.00,,,0.00,1013.00,VWS V14.00,2013-06-16 17:45:00,
2013-06-16 13:00:00,90.5,78.9,29.95,SE,125,3.0,11.0,69,0.00,,,0.00,1009.00,VWS V14.00,2013-06-16 18:00:00,
2013-06-16 13:15:00,90.3,77.9,29.94,East,98,5.0,11.0,67,0.00,,,0.00,1004.00,VWS V14.00,2013-06-16 18:15:00,
2013-06-16 13:30:00,90.8,78.3,29.94,NE,49,2.0,11.0,67,0.00,,,0.00,1027.00,VWS V14.00,2013-06-16 18:30:00,
2013-06-16 13:45:00,90.5,78.5,29.94,ESE,112,4.0,11.0,68,0.00,,,0.00,1007.00,VWS V14.00,2013-06-16 18:45:00,
2013-06-16 14:00:00,90.1,78.1,29.93,East,90,4.0,11.0,68,0.00,,,0.00,982.00,VWS V14.00,2013-06-16 19:00:00,
2013-06-16 14:15:00,91.2,78.3,29.93,SSE,158,3.0,11.0,66,0.00,,,0.00,984.00,VWS V14.00,2013-06-16 19:15:00,
2013-06-16 14:30:00,90.4,78.4,29.92,South,180,4.0,10.0,68,0.00,,,0.00,981.00,VWS V14.00,2013-06-16 19:30:00,
2013-06-16 14:45:00,90.4,78.8,29.92,South,180,3.0,10.0,69,0.00,,,0.00,933.00,VWS V14.00,2013-06-16 19:45:00,
2013-06-16 15:05:00,90.1,79.0,29.92,East,101,5.0,5.0,70,0.00,,,0.00,974.00,VWS V14.00,2013-06-16 20:05:00,
2013-06-16 15:15:00,90.5,79.4,29.92,ESE,112,3.0,9.0,70,0.00,,,0.00,865.00,VWS V14.00,2013-06-16 20:15:00,
2013-06-16 15:29:00,90.2,79.1,29.91,SW,217,3.0,12.0,70,0.00,,,0.00,831.00,VWS V14.00,2013-06-16 20:29:00,
2013-06-16 15:45:00,90.6,79.9,29.91,East,90,4.0,12.0,71,0.00,,,0.00,817.00,VWS V14.00,2013-06-16 20:45:00,
2013-06-16 16:00:00,90.5,79.4,29.90,South,180,4.0,11.0,70,0.00,,,0.00,786.00,VWS V14.00,2013-06-16 21:00:00,
2013-06-16 16:15:00,90.2,79.5,29.90,ESE,112,4.0,11.0,71,0.00,,,0.00,746.00,VWS V14.00,2013-06-16 21:15:00,
2013-06-16 16:30:00,89.8,79.1,29.90,ESE,112,4.0,11.0,71,0.00,,,0.00,706.00,VWS V14.00,2013-06-16 21:30:00,
2013-06-16 16:45:00,89.5,79.7,29.89,SE,135,4.0,11.0,73,0.00,,,0.00,664.00,VWS V14.00,2013-06-16 21:45:00,
2013-06-16 17:00:00,89.8,79.6,29.90,ESE,112,3.0,13.0,72,0.00,,,0.00,620.00,VWS V14.00,2013-06-16 22:00:00,
2013-06-16 17:15:00,89.3,79.5,29.89,South,180,3.0,11.0,73,0.00,,,0.00,574.00,VWS V14.00,2013-06-16 22:15:00,
2013-06-16 17:30:00,88.6,79.2,29.89,ESE,112,4.0,10.0,74,0.00,,,0.00,527.00,VWS V14.00,2013-06-16 22:30:00,
2013-06-16 17:45:00,88.2,78.9,29.89,ESE,112,4.0,11.0,74,0.00,,,0.00,477.00,VWS V14.00,2013-06-16 22:45:00,
2013-06-16 18:00:00,88.0,79.5,29.88,ESE,112,4.0,12.0,76,0.00,,,0.00,425.00,VWS V14.00,2013-06-16 23:00:00,
2013-06-16 18:15:00,87.6,79.1,29.89,SE,135,4.0,11.0,76,0.00,,,0.00,371.00,VWS V14.00,2013-06-16 23:15:00,
2013-06-16 18:30:00,87.1,79.0,29.89,South,180,4.0,10.0,77,0.00,,,0.00,311.00,VWS V14.00,2013-06-16 23:30:00,
2013-06-16 18:45:00,86.6,78.5,29.89,South,180,4.0,14.0,77,0.00,,,0.00,269.00,VWS V14.00,2013-06-16 23:45:00,
2013-06-16 19:00:00,86.8,78.7,29.89,South,180,3.0,12.0,77,0.00,,,0.00,220.00,VWS V14.00,2013-06-17 00:00:00,
2013-06-16 19:15:00,86.1,78.4,29.88,SSE,158,3.0,13.0,78,0.00,,,0.00,158.00,VWS V14.00,2013-06-17 00:15:00,
2013-06-16 19:30:00,85.6,78.0,29.88,South,180,3.0,10.0,78,0.00,,,0.00,112.00,VWS V14.00,2013-06-17 00:30:00,
2013-06-16 19:45:00,85.0,77.8,29.89,SSE,158,3.0,12.0,79,0.00,,,0.00,61.00,VWS V14.00,2013-06-17 00:45:00,
2013-06-16 20:00:00,84.7,77.1,29.88,South,180,3.0,10.0,78,0.00,,,0.00,39.00,VWS V14.00,2013-06-17 01:00:00,
2013-06-16 20:15:00,84.4,77.2,29.88,South,180,3.0,13.0,79,0.00,,,0.00,20.00,VWS V14.00,2013-06-17 01:15:00,
2013-06-16 20:30:00,84.2,77.4,29.88,South,180,3.0,10.0,80,0.00,,,0.00,5.00,VWS V14.00,2013-06-17 01:30:00,
2013-06-16 20:45:00,84.0,77.9,29.87,South,180,3.0,12.0,82,0.00,,,0.00,0.00,VWS V14.00,2013-06-17 01:45:00,
2013-06-16 21:00:00,83.8,77.7,29.88,South,180,3.0,10.0,82,0.00,,,0.00,0.00,VWS V14.00,2013-06-17 02:00:00,
2013-06-16 21:15:00,83.7,78.0,29.88,South,180,3.0,11.0,83,0.00,,,0.00,0.00,VWS V14.00,2013-06-17 02:15:00,
2013-06-16 21:30:00,83.6,77.9,29.88,South,180,4.0,12.0,83,0.00,,,0.00,0.00,VWS V14.00,2013-06-17 02:30:00,
2013-06-16 21:45:00,83.3,77.6,29.89,South,180,3.0,12.0,83,0.00,,,0.00,0.00,VWS V14.00,2013-06-17 02:45:00,
2013-06-16 22:00:00,83.3,77.6,29.89,South,180,3.0,12.0,83,0.00,,,0.00,0.00,VWS V14.00,2013-06-17 03:00:00,
2013-06-16 22:15:00,83.2,77.5,29.90,South,180,3.0,11.0,83,0.00,,,0.00,0.00,VWS V14.00,2013-06-17 03:15:00,
2013-06-16 22:30:00,83.2,77.5,29.91,South,180,3.0,10.0,83,0.00,,,0.00,0.00,VWS V14.00,2013-06-17 03:30:00,
2013-06-16 22:45:00,83.1,77.4,29.90,South,180,4.0,13.0,83,0.00,,,0.00,0.00,VWS V14.00,2013-06-17 03:45:00,
2013-06-16 23:04:00,83.0,77.3,29.91,South,180,3.0,10.0,83,0.00,,,0.00,0.00,VWS V14.00,2013-06-17 04:04:00,
2013-06-16 23:15:00,83.0,77.3,29.91,South,184,4.0,10.0,83,0.00,,,0.00,0.00,VWS V14.00,2013-06-17 04:15:00,
2013-06-16 23:30:00,83.0,77.3,29.91,SE,144,2.0,11.0,83,0.00,,,0.00,0.00,VWS V14.00,2013-06-17 04:30:00,
2013-06-16 23:45:00,82.9,77.2,29.91,South,180,3.0,11.0,83,0.00,,,0.00,0.00,VWS V14.00,2013-06-17 04:45:00,